Location: *
(45.4590°N, 16.3650°E)
Time: 18:53:30
(UTC+00:00)

STARLINK-1124 - Pass Details

Date: 17 January 2020
Orbit: 360 x 364 km, 53.0° (Epoch: 25 February)

Event Time Altitude Azimuth Distance (km) Brightness Sun altitude
Rises 16:33:10 0° 222° (SW) 2,177 7.9 -9.4°
Reaches altitude 10° 16:35:13 10° 215° (SW) 1,336 6.5 -9.7°
Maximum altitude 16:38:05 44° 142° (SE) 510 3.3 -10.2°
Enters shadow 16:40:05 17° 74° (ENE) 1,005 4.3 -10.5°
